Weather History for Gibraltar, Gibraltar

Change the Weather History Date:

Sunday, March 2, 2014

  Actual Average Record
Temperature  
Mean Temperature 62 °F -  
Max Temperature 64 °F 63 °F - ()
Min Temperature 59 °F 53 °F - ()
Degree Days  
Heating Degree Days 4    
Growing Degree Days 12 (Base 50)    
Moisture  
Dew Point 54 °F    
Average Humidity 74    
Maximum Humidity 94    
Minimum Humidity 61    
Precipitation  
Precipitation 0.00 in - - ()
Sea Level Pressure  
Sea Level Pressure 29.98 in    
Wind  
Wind Speed 25 mph ()    
Max Wind Speed 38 mph    
Max Gust Speed 50 mph    
Visibility 7.4 miles    
Events Rain    
T = Trace of Precipitation, MM = Missing Value Source: Averaged Metar Reports

Daily Weather History Graph

Daily Weather History Graph

Search for Another Location

Airport:

Trip Planner

Search our weather history database for the weather conditions in past years. The results will help you decide how hot, cold, wet, or windy it might be!

Date:

Astronomy

Mar. 02, 2014 Rise Set
Actual Time 7:50 AM CET 7:16 PM CET
Civil Twilight 7:24 AM CET 7:42 PM CET
Nautical Twilight 6:55 AM CET 8:12 PM CET
Astronomical Twilight 6:25 AM CET 8:42 PM CET
Moon 8:16 AM CET (3/2) 8:52 PM CET (3/2)
Length of Visible Light 12h 17m
Length of Day
11h 26m
New Moon, 2% of the Moon is Illuminated
Mar 2
New Moon
Mar 8
First Quarter
Mar 16
Full
Mar 24
Last Quarter
Mar 30
New

Hourly Weather History & Observations

Time (CET) Temp. Dew Point Humidity Pressure Visibility Wind Dir Wind Speed Gust Speed Precip Events Conditions
12:00 AM 61 °F 56 °F 78% 29.94 in 7 mi West 34.5 mph - -   Mostly Cloudy
12:50 AM 59.0 °F 57.2 °F 94% 29.92 in 3.7 mi West 33.4 mph - N/A   Mostly Cloudy
1:00 AM 60 °F 57 °F 85% 29.94 in 4 mi West 33.4 mph - -   Mostly Cloudy
1:50 AM 60.8 °F 55.4 °F 82% 29.92 in 6.2 mi West 38.0 mph 49.5 mph N/A   Mostly Cloudy
2:00 AM 60 °F 55 °F 78% 29.94 in 7 mi West 38.0 mph - -   Mostly Cloudy
2:50 AM 59.0 °F 55.4 °F 88% 29.92 in 4.3 mi West 32.2 mph - N/A   Mostly Cloudy
3:00 AM 60 °F 55 °F 79% 29.92 in 4 mi West 32.2 mph - -   Mostly Cloudy
3:50 AM 60.8 °F 53.6 °F 77% 29.89 in 6.2 mi West 33.4 mph 46.0 mph N/A   Mostly Cloudy
4:00 AM 60 °F 53 °F 72% 29.91 in 10 mi West 33.4 mph - -   Scattered Clouds
4:50 AM 59.0 °F 53.6 °F 82% 29.92 in 6.2 mi West 28.8 mph - N/A   Mostly Cloudy
5:00 AM 60 °F 54 °F 74% 29.92 in 9 mi West 28.8 mph - -   Scattered Clouds
5:50 AM 59.0 °F 51.8 °F 77% 29.92 in 6.2 mi West 28.8 mph - N/A   Mostly Cloudy
6:00 AM 60 °F 53 °F 69% 29.92 in 9 mi West 23.0 mph - -   Mostly Cloudy
6:50 AM 59.0 °F 51.8 °F 77% 29.92 in 6.2 mi West 20.7 mph 32.2 mph N/A   Mostly Cloudy
7:00 AM 60 °F 53 °F 69% 29.94 in 9 mi West 20.7 mph - -   Mostly Cloudy
7:50 AM 59.0 °F 53.6 °F 82% 29.95 in 6.2 mi West 21.9 mph 34.5 mph N/A   Mostly Cloudy
8:00 AM 60 °F 53 °F 70% 29.96 in 11 mi West 21.9 mph - -   Mostly Cloudy
8:50 AM 59.0 °F 51.8 °F 77% 29.98 in 6.2 mi West 19.6 mph - N/A   Mostly Cloudy
9:00 AM 60 °F 52 °F 67% 29.98 in 11 mi West 19.6 mph - -   Mostly Cloudy
9:50 AM 60.8 °F 51.8 °F 72% 29.98 in 6.2 mi West 20.7 mph 35.7 mph N/A   Mostly Cloudy
10:00 AM 60 °F 51 °F 65% 30.00 in 9 mi West 20.7 mph - -   Mostly Cloudy
10:50 AM 60.8 °F 51.8 °F 72% 30.01 in 6.2 mi West 20.7 mph 33.4 mph N/A   Mostly Cloudy
11:00 AM 60 °F 51 °F 65% 30.02 in 9 mi West 20.7 mph - - Rain Light Drizzle
11:50 AM 60.8 °F 51.8 °F 72% 30.01 in 6.2 mi West 19.6 mph 33.4 mph N/A   Mostly Cloudy
12:00 PM 61 °F 52 °F 63% 30.03 in 9 mi West 19.6 mph - -   Mostly Cloudy
12:50 PM 60.8 °F 51.8 °F 72% 30.04 in 6.2 mi West 20.7 mph 32.2 mph N/A   Mostly Cloudy
1:00 PM 62 °F 52 °F 61% 30.04 in 12 mi West 20.7 mph - -   Partly Cloudy
1:50 PM 62.6 °F 51.8 °F 68% 30.01 in 6.2 mi West 19.6 mph 31.1 mph N/A   Scattered Clouds
2:00 PM 62 °F 52 °F 62% 30.03 in 12 mi West 19.6 mph - -   Mostly Cloudy
2:50 PM 62.6 °F 53.6 °F 72% 30.01 in 6.2 mi West 20.7 mph 33.4 mph N/A   Scattered Clouds
3:00 PM 62 °F 53 °F 65% 30.01 in 12 mi West 20.7 mph - -   Mostly Cloudy
3:50 PM 62.6 °F 53.6 °F 72% 29.98 in 6.2 mi West 20.7 mph 33.4 mph N/A   Scattered Clouds
4:00 PM 62 °F 54 °F 67% 30.00 in 12 mi West 20.7 mph - -   Partly Cloudy
4:50 PM 62.6 °F 55.4 °F 77% 30.01 in 6.2 mi West 23.0 mph 35.7 mph N/A   Light Drizzle
5:00 PM 62 °F 55 °F 70% 30.01 in 7 mi West 23.0 mph - - Rain Light Drizzle
5:50 PM 60.8 °F 55.4 °F 82% 30.01 in 6.2 mi West 23.0 mph 35.7 mph N/A   Mostly Cloudy
6:00 PM 61 °F 55 °F 75% 30.01 in 7 mi West 23.0 mph - - Rain Light Drizzle
6:50 PM 60.8 °F 55.4 °F 82% 30.01 in 6.2 mi WSW 20.7 mph 32.2 mph N/A   Mostly Cloudy
7:00 PM 61 °F 55 °F 74% 30.01 in 7 mi WSW 20.7 mph - -   Partly Cloudy
7:50 PM 60.8 °F 53.6 °F 77% 30.01 in 6.2 mi West 23.0 mph - N/A   Mostly Cloudy
8:00 PM 60 °F 54 °F 74% 30.03 in 7 mi West 23.0 mph - -   Mostly Cloudy
8:50 PM 60.8 °F 53.6 °F 77% 30.04 in 6.2 mi West 21.9 mph 33.4 mph N/A   Mostly Cloudy
9:00 PM 60 °F 54 °F 74% 30.04 in 9 mi West 21.9 mph - -   Mostly Cloudy
9:50 PM 59.0 °F 55.4 °F 88% 30.04 in 6.2 mi West 20.7 mph 32.2 mph N/A   Mostly Cloudy
10:00 PM 60 °F 54 °F 76% 30.04 in 7 mi West 20.7 mph - -   Mostly Cloudy
10:50 PM 60.8 °F 53.6 °F 77% 30.04 in 6.2 mi West 20.7 mph 33.4 mph N/A   Mostly Cloudy
11:00 PM 60 °F 54 °F 74% 30.05 in 9 mi West 20.7 mph - -   Mostly Cloudy
11:50 PM 60.8 °F 51.8 °F 72% 30.04 in 6.2 mi WSW 20.7 mph - N/A   Mostly Cloudy